EW2260 Weather Reports


Display with metric or nautical units.
time (UTC)temp
F
wind
direction
speed
MPH
gust
MPH
rain 1hr
in
rain 24hr
in
rain mn
in
humidity
%
barometer
mb
20260503203604 64 253 9.0 18.0 0.00 0.00 0.00 58 1013.1
20260503203009 63 229 7.0 14.0 0.00 0.00 0.00 59 1013.1
20260503202404 62 249 8.0 17.0 0.00 0.00 0.00 59 1013.1
20260503201804 62 273 8.0 16.0 0.00 0.00 0.00 59 1013.2
20260503201204 62 271 8.0 15.0 0.00 0.00 0.00 59 1013.1
20260503200008 62 227 6.0 14.0 0.00 0.00 0.00 57 1013.2
20260503195404 62 247 7.0 14.0 0.00 0.00 0.00 60 1013.4
20260503194804 62 229 7.0 17.0 0.00 0.00 0.00 58 1013.4
20260503194204 62 215 7.0 17.0 0.00 0.00 0.00 60 1013.7
20260503193008 61 249 8.0 14.0 0.00 0.00 0.00 60 1013.7
20260503192404 61 260 6.0 14.0 0.00 0.00 0.00 60 1013.7
20260503191804 60 245 4.0 13.0 0.00 0.00 0.00 63 1013.6
20260503191204 60 243 4.0 9.0 0.00 0.00 0.00 63 1013.7
20260503190606 60 254 6.0 13.0 0.00 0.00 0.00 63 1013.8
20260503190008 60 258 8.0 13.0 0.00 0.00 0.00 64 1013.8
20260503185404 60 249 7.0 13.0 0.00 0.00 0.00 64 1013.9
20260503184804 60 246 6.0 10.0 0.00 0.00 0.00 64 1013.9
20260503184206 60 233 4.0 10.0 0.00 0.00 0.00 66 1014.0
20260503183604 59 219 4.0 10.0 0.00 0.00 0.00 66 1014.0
20260503183008 59 237 5.0 11.0 0.00 0.00 0.00 66 1014.0
20260503181804 59 250 5.0 12.0 0.00 0.00 0.00 65 1014.0
20260503181204 59 239 6.0 12.0 0.00 0.00 0.00 69 1014.1
20260503180604 59 252 7.0 12.0 0.00 0.00 0.00 68 1014.2
20260503180008 58 265 8.0 13.0 0.00 0.00 0.00 71 1014.1
20260503175404 57 266 8.0 14.0 0.00 0.00 0.00 73 1014.0
20260503174804 56 268 8.0 14.0 0.00 0.00 0.00 74 1014.2
20260503173604 55 264 8.0 15.0 0.00 0.00 0.00 74 1014.2
20260503173008 55 268 7.0 12.0 0.00 0.00 0.00 76 1014.2
20260503172404 55 265 6.0 12.0 0.00 0.00 0.00 77 1014.2
20260503171805 54 272 6.0 11.0 0.00 0.00 0.00 78 1014.2
20260503170604 54 270 6.0 10.0 0.00 0.00 0.00 80 1014.0
20260503150603 54 220 0.0 1.0 0.00 0.00 0.00 84 1013.0
20260503131204 48 209 0.0 1.0 0.00 0.00 0.00 88 1012.3
20260503130604 48 209 1.0 2.0 0.00 0.00 0.00 87 1012.2
20260503081204 53 258 3.0 6.0 0.00 0.00 0.00 84 1012.5
20260503080604 53 259 4.0 7.0 0.00 0.00 0.00 84 1012.5
20260503072404 53 252 3.0 6.0 0.00 0.00 0.00 85 1012.2
20260503071805 53 252 4.0 10.0 0.00 0.00 0.00 85 1012.1
20260503071204 53 250 6.0 10.0 0.00 0.00 0.00 86 1012.0
20260503070603 53 246 5.0 9.0 0.00 0.00 0.00 86 1012.1
20260503054804 50 275 0.0 1.0 0.00 0.00 0.00 88 1011.6
20260503054204 50 274 0.0 1.0 0.00 0.00 0.00 87 1011.6
20260503053603 50 275 0.0 1.0 0.00 0.00 0.00 87 1011.5
20260503053008 50 274 1.0 2.0 0.00 0.00 0.00 87 1011.5
20260503052404 50 281 1.0 2.0 0.00 0.00 0.00 86 1011.5
20260503051803 50 331 1.0 3.0 0.00 0.00 0.00 86 1011.4
20260503051204 51 359 2.0 3.0 0.00 0.00 0.00 87 1011.2
20260503050603 51 24 2.0 3.0 0.00 0.00 0.00 87 1011.2
20260503050007 51 56 1.0 2.0 0.00 0.00 0.00 87 1011.2
20260503045404 51 51 1.0 2.0 0.00 0.00 0.00 86 1011.2
20260503044803 51 2 1.0 2.0 0.00 0.00 0.00 86 1011.1
20260503044203 51 355 1.0 2.0 0.00 0.00 0.00 85 1010.8
20260503043603 51 355 0.0 2.0 0.00 0.00 0.00 85 1010.7
20260503043007 51 355 0.0 1.0 0.00 0.00 0.00 84 1010.7
20260503042404 51 355 0.0 1.0 0.00 0.00 0.00 84 1010.7
20260503041803 52 355 0.0 1.0 0.00 0.00 0.00 83 1010.8
20260503041204 52 355 0.0 2.0 0.00 0.00 0.00 83 1010.8
20260503040603 52 355 0.0 2.0 0.00 0.00 0.00 83 1010.6
20260503035404 53 355 0.0 2.0 0.00 0.00 0.00 82 1010.7
20260503034803 53 355 0.0 2.0 0.00 0.00 0.00 81 1010.7
20260503034203 54 355 0.0 1.0 0.00 0.00 0.00 81 1010.7
20260503033604 54 354 1.0 2.0 0.00 0.00 0.00 81 1010.7
20260503033008 54 331 1.0 3.0 0.00 0.00 0.00 81 1010.7
20260503032404 54 281 2.0 4.0 0.00 0.00 0.00 80 1010.6
20260503031804 55 284 2.0 4.0 0.00 0.00 0.00 79 1010.7
20260503031203 55 308 1.0 3.0 0.00 0.00 0.00 79 1010.6
20260503030605 56 302 1.0 2.0 0.00 0.00 0.00 78 1010.5
20260503030008 56 306 2.0 3.0 0.00 0.00 0.00 78 1010.5
20260503025403 56 328 2.0 5.0 0.00 0.00 0.00 77 1010.4
20260503024805 57 333 1.0 5.0 0.00 0.00 0.00 76 1010.4
20260503024204 57 237 2.0 4.0 0.00 0.00 0.00 75 1010.3
20260503023604 58 261 3.0 7.0 0.00 0.00 0.00 75 1010.2
20260503023007 58 270 2.0 5.0 0.00 0.00 0.00 73 1010.3
20260503022404 59 237 1.0 3.0 0.00 0.00 0.00 72 1010.3
20260503021804 59 204 2.0 5.0 0.00 0.00 0.00 73 1010.2
20260503021204 60 237 3.0 7.0 0.00 0.00 0.00 71 1010.2
20260503020604 60 253 6.0 13.0 0.00 0.00 0.00 71 1010.1
20260503020008 61 252 5.0 13.0 0.00 0.00 0.00 69 1010.1
20260503015404 61 210 4.0 8.0 0.00 0.00 0.00 69 1010.1
20260503014804 62 230 4.0 8.0 0.00 0.00 0.00 69 1010.0
20260503014204 62 281 6.0 11.0 0.00 0.00 0.00 68 1009.9
20260503013603 62 278 7.0 12.0 0.00 0.00 0.00 68 1009.9
20260503013007 63 267 6.0 12.0 0.00 0.00 0.00 66 1009.8
20260503011803 65 283 4.0 10.0 0.00 0.00 0.00 63 1010.0
20260503011205 66 172 4.0 9.0 0.00 0.00 0.00 62 1010.0
20260503010604 66 109 4.0 10.0 0.00 0.00 0.00 62 1009.9
20260503005403 67 211 4.0 8.0 0.00 0.00 0.00 60 1010.0
20260503004803 67 181 4.0 10.0 0.00 0.00 0.00 61 1009.9
20260503004204 67 179 4.0 8.0 0.00 0.00 0.00 61 1010.0
20260503001803 67 127 6.0 13.0 0.00 0.00 0.00 61 1009.9
20260503001204 67 124 7.0 13.0 0.00 0.00 0.00 60 1009.9
20260503000604 68 121 6.0 12.0 0.00 0.00 0.00 60 1010.0
20260503000009 68 140 6.0 12.0 0.00 0.00 0.00 60 1009.9
20260502235404 69 171 6.0 13.0 0.00 0.00 0.00 57 1010.0
20260502234804 69 167 7.0 16.0 0.00 0.00 0.00 59 1010.0
20260502234203 69 168 8.0 17.0 0.00 0.00 0.00 57 1010.0
20260502233605 70 176 7.0 17.0 0.00 0.00 0.00 55 1010.0
20260502233007 70 179 7.0 18.0 0.00 0.00 0.00 56 1010.0
20260502232403 70 164 7.0 18.0 0.00 0.00 0.00 57 1010.1
20260502231803 70 159 6.0 14.0 0.00 0.00 0.00 58 1010.2
20260502231203 70 161 5.0 14.0 0.00 0.00 0.00 56 1010.2
20260502230603 70 165 4.0 11.0 0.00 0.00 0.00 56 1010.3
20260502230008 70 149 5.0 11.0 0.00 0.00 0.00 58 1010.4
20260502224803 69 136 4.0 10.0 0.00 0.00 0.00 60 1010.5
20260502223603 69 164 5.0 15.0 0.00 0.00 0.00 58 1010.9
20260502223010 69 161 6.0 15.0 0.00 0.00 0.00 58 1011.0
20260502222403 69 149 7.0 13.0 0.00 0.00 0.00 59 1011.1
20260502221806 69 146 6.0 12.0 0.00 0.00 0.00 60 1011.1
20260502220605 69 154 5.0 11.0 0.00 0.00 0.00 61 1011.4
20260502220008 69 146 6.0 10.0 0.00 0.00 0.00 59 1011.5
20260502215405 69 159 6.0 13.0 0.00 0.00 0.00 59 1011.7
20260502214805 69 169 7.0 13.0 0.00 0.00 0.00 59 1011.9
20260502213604 68 160 7.0 18.0 0.00 0.00 0.00 61 1012.0
20260502213008 68 161 6.0 12.0 0.00 0.00 0.00 61 1012.0
20260502212405 68 161 7.0 14.0 0.00 0.00 0.00 62 1012.1
20260502211805 68 162 8.0 15.0 0.00 0.00 0.00 62 1012.2
20260502211206 68 167 9.0 15.0 0.00 0.00 0.00 62 1012.3
20260502210009 68 163 7.0 16.0 0.00 0.00 0.00 64 1012.4
20260502205405 68 161 5.0 12.0 0.00 0.00 0.00 64 1012.4
20260502204806 67 165 6.0 12.0 0.00 0.00 0.00 67 1012.6